Location: Cassano d�Adda
(45.5333°N, 9.5167°E)
Time: 07:29:53
(UTC+00:00)

Cosmos 2333 Rocket - Pass Details

Date: 08 December 2019
Orbit: 837 x 864 km, 70.8° (Epoch: 27 January)

Event Time Altitude Azimuth Distance (km) Brightness Sun altitude
Rises 16:09:13 0° 196° (SSW) 3,404 6.1 -5.5°
Reaches altitude 10° 16:11:40 10° 193° (SSW) 2,476 5.3 -5.9°
Maximum altitude 16:17:19 68° 112° (ESE) 925 2.3 -6.8°
Drops below altitude 10° 16:23:02 10° 31° (NNE) 2,509 4.2 -7.7°
Enters shadow 16:24:44 - 29° (NNE) 3,152 4.7 -8.0°
